User: anonymous
Location: Squamish
(49.7000°N, 123.1500°W)
Time: 18:04:45
(UTC-07:00)
Language:

NOAA 19 - Orbit

View from above orbital plane
View from above orbital plane
View from above satellite
View from above satellite

Ground track
Ground track

The orbit data is extracted from the following two-line orbital elements,

1 33591U 09005A   14206.48257315  .00000227  00000-0  14883-3 0  3153
2 33591 098.9463 151.4090 0014237 016.7375 091.3882 14.11738328281390
Epoch (UTC): 25 July 2014 11:34:54
Eccentricity: 0.0014237
inclination: 98.9463°
perigee height: 843 km
apogee height: 864 km
right ascension of ascending node: 151.4090°
argument of perigee: 16.7375°
revolutions per day: 14.11738328
mean anomaly at epoch: 91.3882°
orbit number at epoch: 28139

The dashed part of the orbit path shows where the satellite is in the earth's shadow,  

DLR